Regional Weather Roundup
Issued by NWS

Home | Current Version | Previous Version | Text Only | Print | Product List | Glossary Off
Versions: 1 2 3 4 5 6 7 8 9 10 11 12 13 14 15 16 17 18 19 20 21 22 23 24 25 26 27 28 29 30 31 32 33 34 35 36 37 38 39 40 41 42 43 44 45 46 47

000
ASUS45 KPSR 281710
RWRAZ

ARIZONA HOURLY REGIONAL WEATHER ROUNDUP
NATIONAL WEATHER SERVICE PHOENIX AZ
1000 AM MST WED JUN 28 2017

NOTE: FAIR INDICATES FEW OR NO CLOUDS BELOW 12,000 FEET WITH NO
SIGNIFICANT WEATHER AND/OR OBSTRUCTIONS TO VISIBILITY.

AZZ001>003-036-281800-
NORTHWEST ARIZONA

CITY           SKY/WX    TMP DP  RH WIND       PRES   REMARKS
BULLHEAD CITY  SUNNY     99  21   6 S16       29.72S
KINGMAN        SUNNY     92  22   8 SW21G30   29.91S
$$

AZZ004>008-015-016-018-281800-
NORTH CENTRAL ARIZONA

CITY           SKY/WX    TMP DP  RH WIND       PRES   REMARKS
GRAND CANYON   SUNNY     81  12   7 SW21G31   30.14F
PRESCOTT       SUNNY     82  21  10 S9        30.07F
FLAGSTAFF      SUNNY     74  22  14 SW16G25   30.20S
PAYSON         SUNNY     82  32  16 VRB6G15   30.14R
$$

AZZ009>014-017-281800-
NORTHEAST ARIZONA

CITY           SKY/WX    TMP DP  RH WIND       PRES   REMARKS
WINSLOW        SUNNY     90  23   9 W23G30    30.04S
SAINT JOHNS    SUNNY     86  19   8 W17G28    30.09F
WINDOW ROCK    SUNNY     81  15   8 SW18G24   30.16F
SHOW LOW         N/A    N/A N/A N/A MISG        N/A
$$

AZZ540-542>544-546-548-281800-
GREATER PHOENIX AREA

CITY           SKY/WX    TMP DP  RH WIND       PRES   REMARKS
PHOENIX        MOSUNNY   96  49  20 VRB3      29.81F
BUCKEYE        SUNNY     93  54  26 SW12      29.83S
GLENDALE       MOSUNNY   97  54  23 S10G17    29.84S
LUKE AFB       SUNNY     94  56  27 SW12G20   29.82S
DEER VALLEY    SUNNY     93  46  19 VRB3      29.85S
SCOTTSDALE     SUNNY     95  43  16 VRB3      29.86S
MESA-FALCON    SUNNY     95  52  23 S8        29.85F
MESA-GATEWAY   SUNNY     95  55  26 SW8       29.86S
CHANDLER       SUNNY     95  52  23 S10       29.84R
$$

AZZ539-553-281800-
SOUTHWEST MARICOPA COUNTY AND PINAL COUNTY

CITY           SKY/WX    TMP DP  RH WIND       PRES   REMARKS
CASA GRANDE    SUNNY     94  58  29 S13       29.86S
GILA BEND      SUNNY     98  56  25 S10       29.79F
$$

AZZ503-504-507>509-281800-
SOUTHEAST ARIZONA

CITY           SKY/WX    TMP DP  RH WIND       PRES   REMARKS
TUCSON         SUNNY     94  54  25 S5        29.95F
DAVIS-MONTHAN  MOSUNNY   92  53  25 E5        29.94F
RYAN FIELD     SUNNY     97  52  21 SW15G21   29.93F
NOGALES        SUNNY     90  56  31 S13       30.05F
SIERRA VISTA   SUNNY     89  37  15 W5        30.11F
DOUGLAS        SUNNY     88  45  22 VRB3      30.07F
SAFFORD        SUNNY     92  37  14 VRB5      29.95F
$$

AZZ532-281800-
SOUTHWEST ARIZONA

CITY           SKY/WX    TMP DP  RH WIND       PRES   REMARKS
YUMA           SUNNY     93  67  42 S14       29.75S
$$

CAZ041-043-047-048-061-525>527-560>570-281800-
SOUTHERN CALIFORNIA

CITY           SKY/WX    TMP DP  RH WIND       PRES   REMARKS
DOWNTOWN L.A.  SUNNY     73  59  61 CALM      29.88S
L.A. AIRPORT   MOSUNNY   70  59  68 VRB5      29.89S
SAN DIEGO      MOSUNNY   68  58  70 SW8       29.91S
BURBANK        SUNNY     72  56  57 SE6       29.88F
ONTARIO        SUNNY     75  52  44 CALM      29.88F
RIVERSIDE      SUNNY     77  51  40 CALM      29.88F
PALM SPRINGS   SUNNY     95  32  11 E7        29.75S
EL CENTRO NAS  SUNNY     95  49  20 VRB6      29.73F
IMPERIAL       SUNNY     95  56  26 VRB3      29.71F
BLYTHE         SUNNY     94  47  20 S15       29.75S
NEEDLES        SUNNY    102  17   5 S9        29.75S
$$

NVZ020-UTZ003-281800-
SOUTHERN NEVADA-UTAH

CITY           SKY/WX    TMP DP  RH WIND       PRES   REMARKS
LAS VEGAS      SUNNY     93  18   6 VRB6      29.78S
SALT LAKE CITY MOSUNNY   82  42  24 VRB3      29.87F
$$

NMZ009-TXZ055-281800-
NEW MEXICO-WEST TEXAS

CITY           SKY/WX    TMP DP  RH WIND       PRES   REMARKS
ALBUQUERQUE    CLOUDY    80  25  13 SW6       30.07F
EL PASO        SUNNY     90  40  17 W10G18    29.99S
$$


........................KEY........................
SKY/WX - SKY CONDITION/WEATHER
TMP    - TEMPERATURE IN FAHRENHEIT
DP     - DEW POINT IN FAHRENHEIT
RH     - RELATIVE HUMIDITY IN PERCENT
WIND   - DIRECTION AND SPEED IN MILES PER HOUR (MPH)
VRB    - VARIABLE WIND DIRECTION
PRES   - MEAN SEA LEVEL PRESSURE IN INCHES OF MERCURY
         F - FALLING PRESSURE   R - RISING PRESSURE
         S - STEADY PRESSURE
VSB    - VISIBILITY IN MILES
HX     - HEAT INDEX IN FAHRENHEIT
WCI    - WIND CHILL INDEX IN FAHRENHEIT
TC     - TEMPERATURE IN CELSIUS WHICH IS ALSO KNOWN AS
         TEMPERATURE IN CENTIGRADE
AFB    - AIR FORCE BASE
         LUKE AFB IS LUKE AIR FORCE BASE
         DAVIS-MONTHAN IS DAVIS-MONTHAN AIR FORCE BASE
NAS    - NAVAL AIR STATION
         EL CENTRO NAS IS EL CENTRO NAVAL AIR STATION
N/A    - NOT AVAILABLE





USA.gov is the U.S. government's official web portal to all federal, state and local government web resources and services.